Time,TemperatureF,DewpointF,PressureIn,WindDirection,WindDirectionDegrees,WindSpeedMPH,WindSpeedGustMPH,Humidity,HourlyPrecipIn,Conditions,Clouds,dailyrainin,SolarRadiationWatts/m^2,SoftwareType,DateUTC
2013-03-02 00:00:00,15.1,10.3,30.37,North,360,3.0,4.0,81,0.00,,---,0.00,0.00,VWS V14.01,2013-03-02 06:00:00,
2013-03-02 00:05:00,15.0,10.2,30.37,North,5,0.0,4.0,81,0.00,,---,0.00,0.00,VWS V14.01,2013-03-02 06:05:00,
2013-03-02 00:10:00,14.8,10.0,30.37,North,5,2.0,3.0,81,0.00,,---,0.00,0.00,VWS V14.01,2013-03-02 06:10:00,
2013-03-02 00:15:00,14.7,10.2,30.37,North,355,1.0,4.0,82,0.00,,---,0.00,0.00,VWS V14.01,2013-03-02 06:15:00,
2013-03-02 00:20:00,14.6,10.1,30.36,North,355,0.0,2.0,82,0.00,,---,0.00,0.00,VWS V14.01,2013-03-02 06:20:00,
2013-03-02 00:25:00,14.4,9.9,30.37,North,355,0.0,0.0,82,0.00,,---,0.00,0.00,VWS V14.01,2013-03-02 06:25:00,
2013-03-02 00:30:00,14.3,9.8,30.37,North,355,0.0,2.0,82,0.00,,---,0.00,0.00,VWS V14.01,2013-03-02 06:30:00,
2013-03-02 00:35:00,14.0,9.5,30.37,North,355,0.0,1.0,82,0.00,,---,0.00,0.00,VWS V14.01,2013-03-02 06:35:00,
2013-03-02 00:40:00,13.9,9.4,30.37,North,355,1.0,2.0,82,0.00,,---,0.00,0.00,VWS V14.01,2013-03-02 06:40:00,
2013-03-02 00:45:00,13.8,9.6,30.37,North,355,1.0,3.0,83,0.00,,---,0.00,0.00,VWS V14.01,2013-03-02 06:45:00,
2013-03-02 00:50:00,13.7,9.5,30.37,North,355,0.0,3.0,83,0.00,,---,0.00,0.00,VWS V14.01,2013-03-02 06:50:00,
2013-03-02 00:55:00,13.7,9.5,30.37,North,355,0.0,4.0,83,0.00,,---,0.00,0.00,VWS V14.01,2013-03-02 06:55:00,
2013-03-02 01:00:00,13.6,9.4,30.36,North,355,0.0,2.0,83,0.00,,---,0.00,0.00,VWS V14.01,2013-03-02 07:00:00,
2013-03-02 01:05:00,13.5,9.3,30.36,NW,323,3.0,3.0,83,0.00,,---,0.00,0.00,VWS V14.01,2013-03-02 07:05:00,
2013-03-02 01:10:00,13.4,9.2,30.37,NW,323,0.0,3.0,83,0.00,,---,0.00,0.00,VWS V14.01,2013-03-02 07:10:00,
2013-03-02 01:15:00,13.2,9.3,30.37,NW,323,2.0,3.0,84,0.00,,---,0.00,0.00,VWS V14.01,2013-03-02 07:15:00,
2013-03-02 01:20:00,13.1,9.2,30.37,NW,323,0.0,2.0,84,0.00,,---,0.00,0.00,VWS V14.01,2013-03-02 07:20:00,
2013-03-02 01:25:00,13.0,9.1,30.37,NW,324,0.0,1.0,84,0.00,,---,0.00,0.00,VWS V14.01,2013-03-02 07:25:00,
2013-03-02 01:30:00,12.7,8.8,30.37,NW,323,0.0,1.0,84,0.00,,---,0.00,0.00,VWS V14.01,2013-03-02 07:30:00,
2013-03-02 01:35:00,12.6,8.7,30.37,NW,323,0.0,1.0,84,0.00,,---,0.00,0.00,VWS V14.01,2013-03-02 07:35:00,
2013-03-02 01:40:00,12.5,8.6,30.37,NW,324,1.0,3.0,84,0.00,,---,0.00,0.00,VWS V14.01,2013-03-02 07:40:00,
2013-03-02 01:45:00,12.4,8.5,30.37,NW,323,0.0,3.0,84,0.00,,---,0.00,0.00,VWS V14.01,2013-03-02 07:45:00,
2013-03-02 01:50:00,12.3,8.7,30.37,NW,323,0.0,2.0,85,0.00,,---,0.00,0.00,VWS V14.01,2013-03-02 07:50:00,
2013-03-02 01:55:00,12.1,8.5,30.37,NW,324,0.0,1.0,85,0.00,,---,0.00,0.00,VWS V14.01,2013-03-02 07:55:00,
2013-03-02 02:00:00,12.0,8.4,30.37,NW,324,0.0,2.0,85,0.00,,---,0.00,0.00,VWS V14.01,2013-03-02 08:00:00,
2013-03-02 02:05:00,11.8,8.2,30.37,NW,323,1.0,2.0,85,0.00,,---,0.00,0.00,VWS V14.01,2013-03-02 08:05:00,
2013-03-02 02:10:00,11.8,8.2,30.37,NW,323,0.0,4.0,85,0.00,,---,0.00,0.00,VWS V14.01,2013-03-02 08:10:00,
2013-03-02 02:15:00,11.7,8.1,30.37,NW,324,0.0,2.0,85,0.00,,---,0.00,0.00,VWS V14.01,2013-03-02 08:15:00,
2013-03-02 02:20:00,11.6,8.0,30.36,NW,324,0.0,2.0,85,0.00,,---,0.00,0.00,VWS V14.01,2013-03-02 08:20:00,
2013-03-02 02:25:00,11.4,7.8,30.36,NW,323,0.0,0.0,85,0.00,,---,0.00,0.00,VWS V14.01,2013-03-02 08:25:00,
2013-03-02 02:30:00,11.2,7.6,30.36,NW,324,0.0,0.0,85,0.00,,---,0.00,0.00,VWS V14.01,2013-03-02 08:30:00,
2013-03-02 02:35:00,11.0,7.6,30.36,NW,324,0.0,1.0,86,0.00,,---,0.00,0.00,VWS V14.01,2013-03-02 08:35:00,
2013-03-02 02:40:00,10.9,7.5,30.36,NW,323,0.0,1.0,86,0.00,,---,0.00,0.00,VWS V14.01,2013-03-02 08:40:00,
2013-03-02 02:45:00,10.8,7.4,30.37,NW,324,0.0,1.0,86,0.00,,---,0.00,0.00,VWS V14.01,2013-03-02 08:45:00,
2013-03-02 02:50:00,10.7,7.3,30.37,NW,323,0.0,2.0,86,0.00,,---,0.00,0.00,VWS V14.01,2013-03-02 08:50:00,
2013-03-02 02:55:00,10.6,7.2,30.37,NW,324,0.0,3.0,86,0.00,,---,0.00,0.00,VWS V14.01,2013-03-02 08:55:00,
2013-03-02 03:00:00,10.5,7.2,30.37,NW,324,0.0,1.0,86,0.00,,---,0.00,0.00,VWS V14.01,2013-03-02 09:00:00,
2013-03-02 03:05:00,10.4,7.1,30.37,NW,323,0.0,1.0,86,0.00,,---,0.00,0.00,VWS V14.01,2013-03-02 09:05:00,
2013-03-02 03:10:00,10.2,6.8,30.37,NW,324,0.0,1.0,86,0.00,,---,0.00,0.00,VWS V14.01,2013-03-02 09:10:00,
2013-03-02 03:15:00,10.0,6.7,30.37,NW,324,0.0,1.0,86,0.00,,---,0.00,0.00,VWS V14.01,2013-03-02 09:15:00,
2013-03-02 03:20:00,9.9,6.6,30.37,NW,324,1.0,1.0,86,0.00,,---,0.00,0.00,VWS V14.01,2013-03-02 09:20:00,
2013-03-02 03:25:00,9.8,6.5,30.37,NW,323,0.0,1.0,86,0.00,,---,0.00,0.00,VWS V14.01,2013-03-02 09:25:00,
2013-03-02 03:30:00,9.7,6.6,30.37,NW,324,0.0,0.0,87,0.00,,---,0.00,0.00,VWS V14.01,2013-03-02 09:30:00,
2013-03-02 03:35:00,9.6,6.5,30.37,NW,324,0.0,0.0,87,0.00,,---,0.00,0.00,VWS V14.01,2013-03-02 09:35:00,
2013-03-02 03:40:00,9.5,6.4,30.37,NW,323,0.0,0.0,87,0.00,,---,0.00,0.00,VWS V14.01,2013-03-02 09:40:00,
2013-03-02 03:45:00,9.5,6.4,30.36,NW,324,0.0,1.0,87,0.00,,---,0.00,0.00,VWS V14.01,2013-03-02 09:45:00,
2013-03-02 03:50:00,9.5,6.4,30.37,NW,324,1.0,2.0,87,0.00,,---,0.00,0.00,VWS V14.01,2013-03-02 09:50:00,
2013-03-02 03:55:00,9.5,6.4,30.36,NW,324,0.0,2.0,87,0.00,,---,0.00,0.00,VWS V14.01,2013-03-02 09:55:00,
2013-03-02 04:00:00,9.4,6.3,30.37,NW,323,0.0,2.0,87,0.00,,---,0.00,0.00,VWS V14.01,2013-03-02 10:00:00,
2013-03-02 04:05:00,9.3,6.2,30.37,NW,324,0.0,2.0,87,0.00,,---,0.00,0.00,VWS V14.01,2013-03-02 10:05:00,
2013-03-02 04:10:00,9.1,6.0,30.37,NW,324,0.0,0.0,87,0.00,,---,0.00,0.00,VWS V14.01,2013-03-02 10:10:00,
2013-03-02 04:15:00,9.0,5.9,30.38,NW,323,0.0,0.0,87,0.00,,---,0.00,0.00,VWS V14.01,2013-03-02 10:15:00,
2013-03-02 04:20:00,8.8,5.7,30.38,NW,323,0.0,2.0,87,0.00,,---,0.00,0.00,VWS V14.01,2013-03-02 10:20:00,
2013-03-02 04:25:00,8.6,5.5,30.38,NW,323,0.0,0.0,87,0.00,,---,0.00,0.00,VWS V14.01,2013-03-02 10:25:00,
2013-03-02 04:30:00,8.2,4.9,30.38,NW,324,0.0,0.0,86,0.00,,---,0.00,0.00,VWS V14.01,2013-03-02 10:30:00,
2013-03-02 04:35:00,7.8,4.7,30.39,NW,324,0.0,0.0,87,0.00,,---,0.00,0.00,VWS V14.01,2013-03-02 10:35:00,
2013-03-02 04:40:00,7.6,4.6,30.38,NW,323,0.0,0.0,87,0.00,,---,0.00,0.00,VWS V14.01,2013-03-02 10:40:00,
2013-03-02 04:45:00,7.6,4.6,30.38,NW,324,0.0,0.0,87,0.00,,---,0.00,0.00,VWS V14.01,2013-03-02 10:45:00,
2013-03-02 04:50:00,7.6,4.6,30.38,NW,324,0.0,0.0,87,0.00,,---,0.00,0.00,VWS V14.01,2013-03-02 10:50:00,
2013-03-02 04:55:00,7.7,4.7,30.38,NW,323,0.0,0.0,87,0.00,,---,0.00,0.00,VWS V14.01,2013-03-02 10:55:00,
2013-03-02 05:00:00,7.7,4.7,30.38,NW,324,0.0,0.0,87,0.00,,---,0.00,0.00,VWS V14.01,2013-03-02 11:00:00,
2013-03-02 05:05:00,7.7,4.7,30.38,NW,324,0.0,0.0,87,0.00,,---,0.00,0.00,VWS V14.01,2013-03-02 11:05:00,
2013-03-02 05:10:00,7.7,4.7,30.38,NW,324,0.0,0.0,87,0.00,,---,0.00,0.00,VWS V14.01,2013-03-02 11:10:00,
2013-03-02 05:15:00,7.6,4.6,30.38,NW,324,0.0,0.0,87,0.00,,---,0.00,0.00,VWS V14.01,2013-03-02 11:15:00,
2013-03-02 05:20:00,7.4,4.3,30.38,NW,324,0.0,0.0,87,0.00,,---,0.00,0.00,VWS V14.01,2013-03-02 11:20:00,
2013-03-02 05:25:00,7.3,4.2,30.37,NW,324,0.0,0.0,87,0.00,,---,0.00,0.00,VWS V14.01,2013-03-02 11:25:00,
2013-03-02 05:30:00,7.3,4.2,30.37,NW,323,0.0,2.0,87,0.00,,---,0.00,0.00,VWS V14.01,2013-03-02 11:30:00,
2013-03-02 05:35:00,7.3,4.2,30.37,NW,324,0.0,0.0,87,0.00,,---,0.00,0.00,VWS V14.01,2013-03-02 11:35:00,
2013-03-02 05:40:00,7.3,4.2,30.37,NW,324,1.0,2.0,87,0.00,,---,0.00,0.00,VWS V14.01,2013-03-02 11:40:00,
2013-03-02 05:45:00,7.3,4.2,30.37,NW,323,1.0,1.0,87,0.00,,---,0.00,0.00,VWS V14.01,2013-03-02 11:45:00,
2013-03-02 05:50:00,7.3,4.2,30.37,NW,323,0.0,1.0,87,0.00,,---,0.00,0.00,VWS V14.01,2013-03-02 11:50:00,
2013-03-02 05:55:00,7.2,4.2,30.37,NW,324,0.0,0.0,87,0.00,,---,0.00,0.00,VWS V14.01,2013-03-02 11:55:00,
2013-03-02 06:00:00,7.1,4.1,30.38,NW,324,0.0,0.0,87,0.00,,---,0.00,0.00,VWS V14.01,2013-03-02 12:00:00,
2013-03-02 06:05:00,7.1,4.1,30.38,NW,324,0.0,0.0,87,0.00,,---,0.00,0.00,VWS V14.01,2013-03-02 12:05:00,
2013-03-02 06:10:00,7.0,4.0,30.38,NW,324,0.0,0.0,87,0.00,,---,0.00,0.00,VWS V14.01,2013-03-02 12:10:00,
2013-03-02 06:15:00,6.9,3.9,30.38,NW,324,0.0,0.0,87,0.00,,---,0.00,0.00,VWS V14.01,2013-03-02 12:15:00,
2013-03-02 06:20:00,6.7,3.7,30.38,NW,324,0.0,0.0,87,0.00,,---,0.00,0.00,VWS V14.01,2013-03-02 12:20:00,
2013-03-02 06:25:00,6.5,3.5,30.38,NW,323,0.0,0.0,87,0.00,,---,0.00,0.00,VWS V14.01,2013-03-02 12:25:00,
2013-03-02 06:30:00,6.3,3.3,30.39,NW,324,0.0,1.0,87,0.00,,---,0.00,0.00,VWS V14.01,2013-03-02 12:30:00,
2013-03-02 06:35:00,6.3,3.3,30.39,NW,324,0.0,1.0,87,0.00,,---,0.00,0.00,VWS V14.01,2013-03-02 12:35:00,
2013-03-02 06:40:00,6.1,3.1,30.39,NW,324,0.0,0.0,87,0.00,,---,0.00,0.00,VWS V14.01,2013-03-02 12:40:00,
2013-03-02 06:45:00,6.1,3.1,30.39,NW,324,2.0,2.0,87,0.00,,---,0.00,0.00,VWS V14.01,2013-03-02 12:45:00,
2013-03-02 06:50:00,6.2,3.2,30.39,NW,324,0.0,2.0,87,0.00,,---,0.00,5.00,VWS V14.01,2013-03-02 12:50:00,
2013-03-02 06:55:00,6.1,3.1,30.39,NW,324,0.0,0.0,87,0.00,,---,0.00,9.00,VWS V14.01,2013-03-02 12:55:00,
2013-03-02 07:00:00,6.1,3.1,30.40,NW,324,0.0,0.0,87,0.00,,---,0.00,11.00,VWS V14.01,2013-03-02 13:00:00,
2013-03-02 07:05:00,6.1,3.1,30.40,NW,324,0.0,0.0,87,0.00,,---,0.00,12.00,VWS V14.01,2013-03-02 13:05:00,
2013-03-02 07:10:00,6.2,3.2,30.40,NW,323,0.0,0.0,87,0.00,,---,0.00,16.00,VWS V14.01,2013-03-02 13:10:00,
2013-03-02 07:15:00,6.1,3.1,30.40,NW,324,0.0,0.0,87,0.00,,---,0.00,19.00,VWS V14.01,2013-03-02 13:15:00,
2013-03-02 07:20:00,6.1,3.1,30.40,NW,324,0.0,0.0,87,0.00,,---,0.00,40.00,VWS V14.01,2013-03-02 13:20:00,
2013-03-02 07:25:00,6.2,3.2,30.40,NW,324,0.0,0.0,87,0.00,,---,0.00,69.00,VWS V14.01,2013-03-02 13:25:00,
2013-03-02 07:30:00,6.9,4.1,30.40,NW,324,0.0,0.0,88,0.00,,---,0.00,83.00,VWS V14.01,2013-03-02 13:30:00,
2013-03-02 07:35:00,7.8,5.0,30.40,NW,324,1.0,2.0,88,0.00,,---,0.00,98.00,VWS V14.01,2013-03-02 13:35:00,
2013-03-02 07:40:00,8.5,5.7,30.40,NW,324,2.0,2.0,88,0.00,,---,0.00,113.00,VWS V14.01,2013-03-02 13:40:00,
2013-03-02 07:45:00,8.9,6.1,30.40,NW,324,2.0,2.0,88,0.00,,---,0.00,128.00,VWS V14.01,2013-03-02 13:45:00,
2013-03-02 07:50:00,9.2,6.1,30.40,NW,324,1.0,2.0,87,0.00,,---,0.00,142.00,VWS V14.01,2013-03-02 13:50:00,
2013-03-02 07:55:00,9.6,6.5,30.39,NW,324,0.0,2.0,87,0.00,,---,0.00,160.00,VWS V14.01,2013-03-02 13:55:00,
2013-03-02 08:00:00,10.0,6.9,30.39,NW,323,2.0,2.0,87,0.00,,---,0.00,172.00,VWS V14.01,2013-03-02 14:00:00,
2013-03-02 08:05:00,10.1,7.0,30.39,NW,323,3.0,3.0,87,0.00,,---,0.00,188.00,VWS V14.01,2013-03-02 14:05:00,
2013-03-02 08:10:00,10.0,6.9,30.39,NW,324,2.0,3.0,87,0.00,,---,0.00,204.00,VWS V14.01,2013-03-02 14:10:00,
2013-03-02 08:15:00,10.0,6.9,30.39,NW,324,3.0,3.0,87,0.00,,---,0.00,220.00,VWS V14.01,2013-03-02 14:15:00,
2013-03-02 08:20:00,10.4,7.3,30.39,NW,324,0.0,3.0,87,0.00,,---,0.00,236.00,VWS V14.01,2013-03-02 14:20:00,
2013-03-02 08:25:00,11.2,8.1,30.39,NW,323,0.0,2.0,87,0.00,,---,0.00,250.00,VWS V14.01,2013-03-02 14:25:00,
2013-03-02 08:30:00,12.0,8.9,30.39,NW,324,0.0,0.0,87,0.00,,---,0.00,260.00,VWS V14.01,2013-03-02 14:30:00,
2013-03-02 08:35:00,12.7,9.6,30.39,NW,323,0.0,4.0,87,0.00,,---,0.00,274.00,VWS V14.01,2013-03-02 14:35:00,
2013-03-02 08:40:00,13.6,10.2,30.39,NW,324,0.0,1.0,86,0.00,,---,0.00,290.00,VWS V14.01,2013-03-02 14:40:00,
2013-03-02 08:45:00,14.3,10.9,30.39,NW,324,0.0,2.0,86,0.00,,---,0.00,302.00,VWS V14.01,2013-03-02 14:45:00,
2013-03-02 08:50:00,14.8,11.1,30.39,NW,324,0.0,3.0,85,0.00,,---,0.00,316.00,VWS V14.01,2013-03-02 14:50:00,
2013-03-02 08:55:00,15.4,11.4,30.39,NW,323,1.0,1.0,84,0.00,,---,0.00,330.00,VWS V14.01,2013-03-02 14:55:00,
2013-03-02 09:00:00,16.1,11.9,30.38,NW,324,0.0,2.0,83,0.00,,---,0.00,345.00,VWS V14.01,2013-03-02 15:00:00,
2013-03-02 09:05:00,16.8,12.5,30.38,NW,323,0.0,1.0,83,0.00,,---,0.00,355.00,VWS V14.01,2013-03-02 15:05:00,
2013-03-02 09:10:00,18.0,13.2,30.37,NW,324,0.0,1.0,81,0.00,,---,0.00,373.00,VWS V14.01,2013-03-02 15:10:00,
2013-03-02 09:15:00,18.8,13.4,30.37,NW,323,0.0,2.0,79,0.00,,---,0.00,392.00,VWS V14.01,2013-03-02 15:15:00,
2013-03-02 09:20:00,18.1,11.8,30.37,NNW,335,1.0,3.0,76,0.00,,---,0.00,408.00,VWS V14.01,2013-03-02 15:20:00,
2013-03-02 09:25:00,18.3,12.3,30.37,NNW,334,0.0,2.0,77,0.00,,---,0.00,425.00,VWS V14.01,2013-03-02 15:25:00,
2013-03-02 09:30:00,19.3,13.0,30.36,NNW,345,3.0,3.0,76,0.00,,---,0.00,446.00,VWS V14.01,2013-03-02 15:30:00,
2013-03-02 09:35:00,19.4,12.5,30.36,ENE,73,0.0,4.0,74,0.00,,---,0.00,466.00,VWS V14.01,2013-03-02 15:35:00,
2013-03-02 09:40:00,19.5,12.3,30.36,ESE,109,2.0,5.0,73,0.00,,---,0.00,478.00,VWS V14.01,2013-03-02 15:40:00,
2013-03-02 09:45:00,19.5,12.3,30.35,East,90,3.0,5.0,73,0.00,,---,0.00,490.00,VWS V14.01,2013-03-02 15:45:00,
2013-03-02 09:50:00,19.4,11.9,30.35,SE,130,3.0,5.0,72,0.00,,---,0.00,504.00,VWS V14.01,2013-03-02 15:50:00,
2013-03-02 09:55:00,19.3,11.8,30.35,ESE,122,3.0,7.0,72,0.00,,---,0.00,517.00,VWS V14.01,2013-03-02 15:55:00,
2013-03-02 10:00:00,19.7,11.8,30.35,NNE,18,6.0,6.0,71,0.00,,---,0.00,527.00,VWS V14.01,2013-03-02 16:00:00,
2013-03-02 10:05:00,19.9,12.0,30.35,East,100,2.0,6.0,71,0.00,,---,0.00,536.00,VWS V14.01,2013-03-02 16:05:00,
2013-03-02 10:10:00,21.0,12.8,30.35,ESE,111,2.0,5.0,70,0.00,,---,0.00,545.00,VWS V14.01,2013-03-02 16:10:00,
2013-03-02 10:15:00,21.6,12.7,30.34,East,88,0.0,4.0,68,0.00,,---,0.00,550.00,VWS V14.01,2013-03-02 16:15:00,
2013-03-02 10:20:00,22.2,12.9,30.35,NE,55,3.0,5.0,67,0.00,,---,0.00,564.00,VWS V14.01,2013-03-02 16:20:00,
2013-03-02 10:25:00,21.7,11.8,30.34,ESE,119,6.0,9.0,65,0.00,,---,0.00,573.00,VWS V14.01,2013-03-02 16:25:00,
2013-03-02 10:30:00,21.7,11.4,30.34,ESE,113,2.0,6.0,64,0.00,,---,0.00,584.00,VWS V14.01,2013-03-02 16:30:00,
2013-03-02 10:35:00,22.0,11.7,30.34,SE,140,1.0,6.0,64,0.00,,---,0.00,592.00,VWS V14.01,2013-03-02 16:35:00,
2013-03-02 10:40:00,22.9,12.2,30.34,SSE,162,1.0,5.0,63,0.00,,---,0.00,601.00,VWS V14.01,2013-03-02 16:40:00,
2013-03-02 10:45:00,22.9,12.2,30.34,ESE,117,0.0,9.0,63,0.00,,---,0.00,610.00,VWS V14.01,2013-03-02 16:45:00,
2013-03-02 10:50:00,22.5,10.7,30.33,ESE,121,4.0,8.0,60,0.00,,---,0.00,617.00,VWS V14.01,2013-03-02 16:50:00,
2013-03-02 10:55:00,22.5,10.7,30.33,SE,137,4.0,8.0,60,0.00,,---,0.00,622.00,VWS V14.01,2013-03-02 16:55:00,
2013-03-02 11:00:00,22.7,10.9,30.33,ESE,112,3.0,9.0,60,0.00,,---,0.00,629.00,VWS V14.01,2013-03-02 17:00:00,
2013-03-02 11:05:00,22.9,10.7,30.33,SE,130,4.0,6.0,59,0.00,,---,0.00,636.00,VWS V14.01,2013-03-02 17:05:00,
2013-03-02 11:10:00,22.9,10.3,30.33,SE,132,5.0,7.0,58,0.00,,---,0.00,642.00,VWS V14.01,2013-03-02 17:10:00,
2013-03-02 11:15:00,23.1,11.3,30.33,SE,126,5.0,8.0,60,0.00,,---,0.00,649.00,VWS V14.01,2013-03-02 17:15:00,
2013-03-02 11:20:00,23.5,11.7,30.33,East,96,0.0,5.0,60,0.00,,---,0.00,650.00,VWS V14.01,2013-03-02 17:20:00,
2013-03-02 11:25:00,24.3,11.7,30.33,ESE,110,1.0,4.0,58,0.00,,---,0.00,657.00,VWS V14.01,2013-03-02 17:25:00,
2013-03-02 11:30:00,24.9,12.2,30.33,East,82,3.0,4.0,58,0.00,,---,0.00,663.00,VWS V14.01,2013-03-02 17:30:00,
2013-03-02 11:35:00,25.0,12.3,30.33,SW,222,5.0,5.0,58,0.00,,---,0.00,666.00,VWS V14.01,2013-03-02 17:35:00,
2013-03-02 11:40:00,24.8,12.1,30.33,SE,132,5.0,8.0,58,0.00,,---,0.00,671.00,VWS V14.01,2013-03-02 17:40:00,
2013-03-02 11:45:00,24.7,12.0,30.32,SSE,165,3.0,5.0,58,0.00,,---,0.00,671.00,VWS V14.01,2013-03-02 17:45:00,
2013-03-02 11:50:00,25.3,12.2,30.32,SW,226,4.0,4.0,57,0.00,,---,0.00,675.00,VWS V14.01,2013-03-02 17:50:00,
2013-03-02 11:55:00,25.4,12.3,30.32,SE,138,4.0,6.0,57,0.00,,---,0.00,680.00,VWS V14.01,2013-03-02 17:55:00,
2013-03-02 12:00:00,25.9,12.4,30.32,ESE,105,4.0,5.0,56,0.00,,---,0.00,679.00,VWS V14.01,2013-03-02 18:00:00,
2013-03-02 12:05:00,25.9,12.4,30.32,East,92,0.0,5.0,56,0.00,,---,0.00,680.00,VWS V14.01,2013-03-02 18:05:00,
2013-03-02 12:10:00,26.5,12.1,30.32,East,92,2.0,3.0,54,0.00,,---,0.00,684.00,VWS V14.01,2013-03-02 18:10:00,
2013-03-02 12:15:00,26.7,12.3,30.31,East,93,0.0,2.0,54,0.00,,---,0.00,684.00,VWS V14.01,2013-03-02 18:15:00,
2013-03-02 12:20:00,27.4,12.1,30.31,SSE,168,3.0,4.0,52,0.00,,---,0.00,686.00,VWS V14.01,2013-03-02 18:20:00,
2013-03-02 12:25:00,27.4,12.1,30.31,South,171,0.0,4.0,52,0.00,,---,0.00,687.00,VWS V14.01,2013-03-02 18:25:00,
2013-03-02 12:30:00,27.4,11.7,30.31,WSW,248,3.0,7.0,51,0.00,,---,0.00,685.00,VWS V14.01,2013-03-02 18:30:00,
2013-03-02 12:35:00,27.0,12.2,30.31,WSW,248,3.0,7.0,53,0.00,,---,0.00,684.00,VWS V14.01,2013-03-02 18:35:00,
2013-03-02 12:40:00,27.9,11.7,30.30,WSW,248,1.0,3.0,50,0.00,,---,0.00,682.00,VWS V14.01,2013-03-02 18:40:00,
2013-03-02 12:45:00,28.8,11.6,30.30,SSW,202,2.0,6.0,48,0.00,,---,0.00,681.00,VWS V14.01,2013-03-02 18:45:00,
2013-03-02 12:50:00,28.2,12.9,30.30,SSW,202,0.0,0.0,52,0.00,,---,0.00,677.00,VWS V14.01,2013-03-02 18:50:00,
2013-03-02 12:55:00,28.7,11.0,30.29,SSE,158,2.0,6.0,47,0.00,,---,0.00,674.00,VWS V14.01,2013-03-02 18:55:00,
2013-03-02 13:00:00,28.0,11.3,30.29,SE,135,2.0,5.0,49,0.00,,---,0.00,672.00,VWS V14.01,2013-03-02 19:00:00,
2013-03-02 13:05:00,28.2,12.0,30.29,SW,225,1.0,4.0,50,0.00,,---,0.00,670.00,VWS V14.01,2013-03-02 19:05:00,
2013-03-02 13:10:00,28.9,10.7,30.29,North,0,2.0,5.0,46,0.00,,---,0.00,665.00,VWS V14.01,2013-03-02 19:10:00,
2013-03-02 13:15:00,28.5,10.4,30.29,NNE,22,1.0,4.0,46,0.00,,---,0.00,659.00,VWS V14.01,2013-03-02 19:15:00,
2013-03-02 13:20:00,28.2,10.6,30.28,NNE,22,1.0,3.0,47,0.00,,---,0.00,655.00,VWS V14.01,2013-03-02 19:20:00,
2013-03-02 13:25:00,28.5,12.2,30.28,SW,225,1.0,5.0,50,0.00,,---,0.00,651.00,VWS V14.01,2013-03-02 19:25:00,
2013-03-02 13:30:00,29.5,11.8,30.28,SW,225,0.0,2.0,47,0.00,,---,0.00,645.00,VWS V14.01,2013-03-02 19:30:00,
2013-03-02 13:35:00,29.6,12.3,30.28,SW,225,2.0,9.0,48,0.00,,---,0.00,640.00,VWS V14.01,2013-03-02 19:35:00,
2013-03-02 13:40:00,29.9,11.6,30.27,WSW,248,1.0,4.0,46,0.00,,---,0.00,635.00,VWS V14.01,2013-03-02 19:40:00,
2013-03-02 13:45:00,30.3,11.5,30.27,WSW,248,1.0,4.0,45,0.00,,---,0.00,627.00,VWS V14.01,2013-03-02 19:45:00,
2013-03-02 13:50:00,30.5,12.2,30.27,WSW,248,1.0,4.0,46,0.00,,---,0.00,613.00,VWS V14.01,2013-03-02 19:50:00,
2013-03-02 13:55:00,30.9,13.5,30.28,WSW,248,1.0,6.0,48,0.00,,---,0.00,617.00,VWS V14.01,2013-03-02 19:55:00,
2013-03-02 14:00:00,30.8,12.5,30.28,SW,225,2.0,6.0,46,0.00,,---,0.00,608.00,VWS V14.01,2013-03-02 20:00:00,
2013-03-02 14:05:00,31.0,12.2,30.28,WSW,248,1.0,5.0,45,0.00,,---,0.00,598.00,VWS V14.01,2013-03-02 20:05:00,
2013-03-02 14:10:00,31.9,13.0,30.27,WSW,248,1.0,3.0,45,0.00,,---,0.00,594.00,VWS V14.01,2013-03-02 20:10:00,
2013-03-02 14:15:00,32.8,12.2,30.27,WSW,248,2.0,7.0,42,0.00,,---,0.00,590.00,VWS V14.01,2013-03-02 20:15:00,
2013-03-02 14:20:00,31.9,13.0,30.27,SW,225,3.0,6.0,45,0.00,,---,0.00,578.00,VWS V14.01,2013-03-02 20:20:00,
2013-03-02 14:25:00,31.3,11.9,30.26,SW,225,0.0,2.0,44,0.00,,---,0.00,566.00,VWS V14.01,2013-03-02 20:25:00,
2013-03-02 14:30:00,31.9,12.5,30.26,SW,225,1.0,3.0,44,0.00,,---,0.00,554.00,VWS V14.01,2013-03-02 20:30:00,
2013-03-02 14:35:00,32.4,11.9,30.26,SW,225,1.0,6.0,42,0.00,,---,0.00,547.00,VWS V14.01,2013-03-02 20:35:00,
2013-03-02 14:40:00,31.9,13.0,30.26,SW,225,1.0,4.0,45,0.00,,---,0.00,535.00,VWS V14.01,2013-03-02 20:40:00,
2013-03-02 14:45:00,32.3,12.3,30.26,SW,225,1.0,5.0,43,0.00,,---,0.00,517.00,VWS V14.01,2013-03-02 20:45:00,
2013-03-02 14:50:00,31.9,12.0,30.26,WSW,248,3.0,7.0,43,0.00,,---,0.00,485.00,VWS V14.01,2013-03-02 20:50:00,
2013-03-02 14:55:00,31.1,11.8,30.25,WSW,248,0.0,2.0,44,0.00,,---,0.00,500.00,VWS V14.01,2013-03-02 20:55:00,
2013-03-02 15:00:00,31.6,11.7,30.25,WSW,248,2.0,5.0,43,0.00,,---,0.00,495.00,VWS V14.01,2013-03-02 21:00:00,
2013-03-02 15:05:00,32.8,13.3,30.25,WSW,248,1.0,4.0,44,0.00,,---,0.00,483.00,VWS V14.01,2013-03-02 21:05:00,
2013-03-02 15:10:00,33.7,12.0,30.25,WSW,248,1.0,5.0,40,0.00,,---,0.00,469.00,VWS V14.01,2013-03-02 21:10:00,
2013-03-02 15:15:00,32.8,11.1,30.25,WSW,248,0.0,3.0,40,0.00,,---,0.00,462.00,VWS V14.01,2013-03-02 21:15:00,
2013-03-02 15:20:00,31.8,11.3,30.25,WSW,248,0.0,3.0,42,0.00,,---,0.00,430.00,VWS V14.01,2013-03-02 21:20:00,
2013-03-02 15:25:00,31.5,11.1,30.25,WSW,248,2.0,5.0,42,0.00,,---,0.00,383.00,VWS V14.01,2013-03-02 21:25:00,
2013-03-02 15:30:00,31.1,11.8,30.25,SSW,202,1.0,5.0,44,0.00,,---,0.00,356.00,VWS V14.01,2013-03-02 21:30:00,
2013-03-02 15:35:00,31.4,12.0,30.25,SSW,202,0.0,1.0,44,0.00,,---,0.00,367.00,VWS V14.01,2013-03-02 21:35:00,
2013-03-02 15:40:00,32.0,12.6,30.25,SSW,202,0.0,0.0,44,0.00,,---,0.00,389.00,VWS V14.01,2013-03-02 21:40:00,
2013-03-02 15:45:00,32.2,11.7,30.25,SSW,202,0.0,0.0,42,0.00,,---,0.00,405.00,VWS V14.01,2013-03-02 21:45:00,
2013-03-02 15:50:00,31.9,12.0,30.25,SSW,202,0.0,3.0,43,0.00,,---,0.00,397.00,VWS V14.01,2013-03-02 21:50:00,
2013-03-02 15:55:00,31.7,11.2,30.25,North,0,1.0,5.0,42,0.00,,---,0.00,401.00,VWS V14.01,2013-03-02 21:55:00,
2013-03-02 16:00:00,31.0,11.1,30.25,North,0,1.0,4.0,43,0.00,,---,0.00,372.00,VWS V14.01,2013-03-02 22:00:00,
2013-03-02 16:05:00,30.7,10.9,30.25,North,0,0.0,1.0,43,0.00,,---,0.00,343.00,VWS V14.01,2013-03-02 22:05:00,
2013-03-02 16:10:00,30.8,11.0,30.25,NNE,22,0.0,3.0,43,0.00,,---,0.00,330.00,VWS V14.01,2013-03-02 22:10:00,
2013-03-02 16:15:00,31.0,10.6,30.25,ENE,68,1.0,4.0,42,0.00,,---,0.00,303.00,VWS V14.01,2013-03-02 22:15:00,
2013-03-02 16:20:00,30.8,10.4,30.25,ENE,68,0.0,3.0,42,0.00,,---,0.00,283.00,VWS V14.01,2013-03-02 22:20:00,
2013-03-02 16:25:00,30.8,11.5,30.25,North,0,1.0,6.0,44,0.00,,---,0.00,292.00,VWS V14.01,2013-03-02 22:25:00,
2013-03-02 16:30:00,30.9,11.6,30.25,North,0,0.0,3.0,44,0.00,,---,0.00,293.00,VWS V14.01,2013-03-02 22:30:00,
2013-03-02 16:35:00,31.5,12.1,30.24,North,0,0.0,2.0,44,0.00,,---,0.00,301.00,VWS V14.01,2013-03-02 22:35:00,
2013-03-02 16:40:00,32.5,12.0,30.24,North,0,0.0,4.0,42,0.00,,---,0.00,295.00,VWS V14.01,2013-03-02 22:40:00,
2013-03-02 16:45:00,33.2,12.1,30.24,North,0,0.0,0.0,41,0.00,,---,0.00,263.00,VWS V14.01,2013-03-02 22:45:00,
2013-03-02 16:50:00,33.5,11.8,30.24,North,0,0.0,2.0,40,0.00,,---,0.00,261.00,VWS V14.01,2013-03-02 22:50:00,
2013-03-02 16:55:00,33.1,12.0,30.24,North,0,0.0,2.0,41,0.00,,---,0.00,234.00,VWS V14.01,2013-03-02 22:55:00,
2013-03-02 17:00:00,32.7,11.6,30.24,North,0,0.0,2.0,41,0.00,,---,0.00,202.00,VWS V14.01,2013-03-02 23:00:00,
2013-03-02 17:05:00,32.2,11.2,30.23,North,0,1.0,3.0,41,0.00,,---,0.00,179.00,VWS V14.01,2013-03-02 23:05:00,
2013-03-02 17:10:00,31.5,11.1,30.23,North,0,1.0,4.0,42,0.00,,---,0.00,154.00,VWS V14.01,2013-03-02 23:10:00,
2013-03-02 17:15:00,30.9,11.1,30.23,North,0,0.0,3.0,43,0.00,,---,0.00,129.00,VWS V14.01,2013-03-02 23:15:00,
2013-03-02 17:20:00,30.7,10.9,30.24,North,0,0.0,3.0,43,0.00,,---,0.00,105.00,VWS V14.01,2013-03-02 23:20:00,
2013-03-02 17:25:00,30.3,10.5,30.24,North,0,1.0,3.0,43,0.00,,---,0.00,85.00,VWS V14.01,2013-03-02 23:25:00,
2013-03-02 17:30:00,29.9,10.6,30.24,North,0,1.0,3.0,44,0.00,,---,0.00,64.00,VWS V14.01,2013-03-02 23:30:00,
2013-03-02 17:35:00,29.7,10.5,30.24,North,0,0.0,3.0,44,0.00,,---,0.00,54.00,VWS V14.01,2013-03-02 23:35:00,
2013-03-02 17:40:00,29.6,11.4,30.23,North,0,0.0,3.0,46,0.00,,---,0.00,32.00,VWS V14.01,2013-03-02 23:40:00,
2013-03-02 17:45:00,29.3,11.1,30.23,North,0,1.0,3.0,46,0.00,,---,0.00,17.00,VWS V14.01,2013-03-02 23:45:00,
2013-03-02 17:50:00,28.9,10.7,30.24,North,0,1.0,5.0,46,0.00,,---,0.00,13.00,VWS V14.01,2013-03-02 23:50:00,
2013-03-02 17:55:00,28.5,10.9,30.24,North,0,1.0,3.0,47,0.00,,---,0.00,11.00,VWS V14.01,2013-03-02 23:55:00,
2013-03-02 18:00:00,28.2,10.6,30.24,North,0,0.0,2.0,47,0.00,,---,0.00,8.00,VWS V14.01,2013-03-03 00:00:00,
2013-03-02 18:05:00,27.9,10.8,30.24,North,0,0.0,2.0,48,0.00,,---,0.00,4.00,VWS V14.01,2013-03-03 00:05:00,
2013-03-02 18:10:00,27.7,10.6,30.24,North,0,0.0,3.0,48,0.00,,---,0.00,0.00,VWS V14.01,2013-03-03 00:10:00,
2013-03-02 18:15:00,27.4,10.8,30.24,North,0,0.0,1.0,49,0.00,,---,0.00,0.00,VWS V14.01,2013-03-03 00:15:00,
2013-03-02 18:20:00,27.2,10.6,30.24,North,0,0.0,3.0,49,0.00,,---,0.00,0.00,VWS V14.01,2013-03-03 00:20:00,
2013-03-02 18:25:00,27.0,10.4,30.24,North,0,0.0,3.0,49,0.00,,---,0.00,0.00,VWS V14.01,2013-03-03 00:25:00,
2013-03-02 18:30:00,26.9,10.3,30.24,North,0,0.0,4.0,49,0.00,,---,0.00,0.00,VWS V14.01,2013-03-03 00:30:00,
2013-03-02 18:35:00,26.8,10.7,30.24,North,0,1.0,3.0,50,0.00,,---,0.00,0.00,VWS V14.01,2013-03-03 00:35:00,
2013-03-02 18:40:00,26.6,10.5,30.24,North,0,1.0,3.0,50,0.00,,---,0.00,0.00,VWS V14.01,2013-03-03 00:40:00,
2013-03-02 18:45:00,26.5,10.4,30.24,North,0,1.0,3.0,50,0.00,,---,0.00,0.00,VWS V14.01,2013-03-03 00:45:00,
2013-03-02 18:50:00,26.3,10.6,30.24,North,0,0.0,3.0,51,0.00,,---,0.00,0.00,VWS V14.01,2013-03-03 00:50:00,
2013-03-02 18:55:00,26.2,10.6,30.25,North,0,1.0,3.0,51,0.00,,---,0.00,0.00,VWS V14.01,2013-03-03 00:55:00,
2013-03-02 19:00:00,26.1,10.5,30.24,North,0,0.0,1.0,51,0.00,,---,0.00,0.00,VWS V14.01,2013-03-03 01:00:00,
2013-03-02 19:05:00,26.0,10.4,30.24,North,0,1.0,3.0,51,0.00,,---,0.00,0.00,VWS V14.01,2013-03-03 01:05:00,
2013-03-02 19:10:00,25.9,10.7,30.24,North,0,0.0,0.0,52,0.00,,---,0.00,0.00,VWS V14.01,2013-03-03 01:10:00,
2013-03-02 19:15:00,25.9,10.3,30.24,North,0,0.0,1.0,51,0.00,,---,0.00,0.00,VWS V14.01,2013-03-03 01:15:00,
2013-03-02 19:20:00,25.8,10.6,30.24,North,0,0.0,3.0,52,0.00,,---,0.00,0.00,VWS V14.01,2013-03-03 01:20:00,
2013-03-02 19:25:00,25.8,10.2,30.23,North,0,0.0,3.0,51,0.00,,---,0.00,0.00,VWS V14.01,2013-03-03 01:25:00,
2013-03-02 19:30:00,25.8,9.7,30.23,NNE,22,1.0,4.0,50,0.00,,---,0.00,0.00,VWS V14.01,2013-03-03 01:30:00,
2013-03-02 19:35:00,25.8,10.2,30.23,NNE,22,0.0,2.0,51,0.00,,---,0.00,0.00,VWS V14.01,2013-03-03 01:35:00,
2013-03-02 19:40:00,25.8,9.7,30.23,NNE,22,0.0,1.0,50,0.00,,---,0.00,0.00,VWS V14.01,2013-03-03 01:40:00,
2013-03-02 19:45:00,25.8,10.2,30.23,NNE,22,0.0,2.0,51,0.00,,---,0.00,0.00,VWS V14.01,2013-03-03 01:45:00,
2013-03-02 19:55:00,25.8,10.2,30.23,NNE,22,1.0,3.0,51,0.00,,---,0.00,0.00,VWS V14.01,2013-03-03 01:55:00,
2013-03-02 20:00:00,25.8,10.2,30.23,NNE,22,2.0,4.0,51,0.00,,---,0.00,0.00,VWS V14.01,2013-03-03 02:00:00,
2013-03-02 20:05:00,25.8,10.2,30.21,NE,45,1.0,5.0,51,0.00,,---,0.00,0.00,VWS V14.01,2013-03-03 02:05:00,
2013-03-02 20:10:00,25.8,10.2,30.21,NE,45,2.0,4.0,51,0.00,,---,0.00,0.00,VWS V14.01,2013-03-03 02:10:00,
2013-03-02 20:15:00,25.7,10.1,30.22,NE,45,1.0,4.0,51,0.00,,---,0.00,0.00,VWS V14.01,2013-03-03 02:15:00,
2013-03-02 20:20:00,25.7,10.1,30.22,NE,45,1.0,5.0,51,0.00,,---,0.00,0.00,VWS V14.01,2013-03-03 02:20:00,
2013-03-02 20:25:00,25.7,10.1,30.21,NE,45,1.0,4.0,51,0.00,,---,0.00,0.00,VWS V14.01,2013-03-03 02:25:00,
2013-03-02 20:30:00,25.6,10.4,30.21,NE,45,2.0,3.0,52,0.00,,---,0.00,0.00,VWS V14.01,2013-03-03 02:30:00,
2013-03-02 20:35:00,25.6,10.4,30.21,NE,45,1.0,3.0,52,0.00,,---,0.00,0.00,VWS V14.01,2013-03-03 02:35:00,
2013-03-02 20:40:00,25.6,10.9,30.21,NE,45,1.0,4.0,53,0.00,,---,0.00,0.00,VWS V14.01,2013-03-03 02:40:00,
2013-03-02 20:45:00,25.5,10.8,30.22,NE,45,0.0,2.0,53,0.00,,---,0.00,0.00,VWS V14.01,2013-03-03 02:45:00,
2013-03-02 20:50:00,25.4,11.1,30.22,NE,45,1.0,3.0,54,0.00,,---,0.00,0.00,VWS V14.01,2013-03-03 02:50:00,
2013-03-02 20:55:00,25.4,11.5,30.22,NE,45,2.0,3.0,55,0.00,,---,0.00,0.00,VWS V14.01,2013-03-03 02:55:00,
2013-03-02 21:00:00,25.3,11.4,30.21,NE,45,1.0,4.0,55,0.00,,---,0.00,0.00,VWS V14.01,2013-03-03 03:00:00,
2013-03-02 21:05:00,25.2,13.6,30.21,NE,45,1.0,3.0,61,0.00,,---,0.00,0.00,VWS V14.01,2013-03-03 03:05:00,
2013-03-02 21:10:00,25.1,12.0,30.20,NE,45,0.0,1.0,57,0.00,,---,0.00,0.00,VWS V14.01,2013-03-03 03:10:00,
2013-03-02 21:15:00,25.0,11.9,30.21,NE,45,0.0,1.0,57,0.00,,---,0.00,0.00,VWS V14.01,2013-03-03 03:15:00,
2013-03-02 21:20:00,24.9,12.2,30.21,NE,45,1.0,3.0,58,0.00,,---,0.00,0.00,VWS V14.01,2013-03-03 03:20:00,
2013-03-02 21:25:00,24.9,12.2,30.21,NE,45,1.0,4.0,58,0.00,,---,0.00,0.00,VWS V14.01,2013-03-03 03:25:00,
2013-03-02 21:30:00,24.9,12.2,30.21,NE,45,2.0,3.0,58,0.00,,---,0.00,0.00,VWS V14.01,2013-03-03 03:30:00,
2013-03-02 21:35:00,24.9,12.6,30.21,NE,45,1.0,3.0,59,0.00,,---,0.00,0.00,VWS V14.01,2013-03-03 03:35:00,
2013-03-02 21:40:00,25.0,12.3,30.21,NE,45,2.0,4.0,58,0.00,,---,0.00,0.00,VWS V14.01,2013-03-03 03:40:00,
2013-03-02 21:45:00,25.0,12.3,30.20,NE,45,2.0,3.0,58,0.00,,---,0.00,0.00,VWS V14.01,2013-03-03 03:45:00,
2013-03-02 21:50:00,24.9,12.2,30.20,NE,45,2.0,4.0,58,0.00,,---,0.00,0.00,VWS V14.01,2013-03-03 03:50:00,
2013-03-02 21:55:00,24.9,12.2,30.20,South,180,2.0,6.0,58,0.00,,---,0.00,0.00,VWS V14.01,2013-03-03 03:55:00,
2013-03-02 22:00:00,24.8,11.7,30.20,South,180,2.0,4.0,57,0.00,,---,0.00,0.00,VWS V14.01,2013-03-03 04:00:00,
2013-03-02 22:05:00,24.7,11.6,30.19,South,180,1.0,2.0,57,0.00,,---,0.00,0.00,VWS V14.01,2013-03-03 04:05:00,
2013-03-02 22:10:00,24.6,11.6,30.19,South,180,1.0,3.0,57,0.00,,---,0.00,0.00,VWS V14.01,2013-03-03 04:10:00,
2013-03-02 22:21:00,24.5,11.9,30.19,South,180,0.0,2.0,58,0.00,,---,0.00,0.00,VWS V14.01,2013-03-03 04:21:00,
2013-03-02 22:30:00,24.2,11.6,30.19,South,180,0.0,0.0,58,0.00,,---,0.00,0.00,VWS V14.01,2013-03-03 04:30:00,
2013-03-02 22:35:00,24.1,11.9,30.20,South,180,0.0,0.0,59,0.00,,---,0.00,0.00,VWS V14.01,2013-03-03 04:35:00,
2013-03-02 22:40:00,24.1,11.9,30.20,South,180,0.0,0.0,59,0.00,,---,0.00,0.00,VWS V14.01,2013-03-03 04:40:00,
2013-03-02 22:45:00,24.0,12.1,30.20,South,180,0.0,0.0,60,0.00,,---,0.00,0.00,VWS V14.01,2013-03-03 04:45:00,
2013-03-02 22:50:00,24.0,12.1,30.20,South,180,0.0,0.0,60,0.00,,---,0.00,0.00,VWS V14.01,2013-03-03 04:50:00,
2013-03-02 22:55:00,23.9,12.1,30.20,South,180,0.0,0.0,60,0.00,,---,0.00,0.00,VWS V14.01,2013-03-03 04:55:00,
2013-03-02 23:00:00,23.9,12.1,30.19,South,180,0.0,0.0,60,0.00,,---,0.00,0.00,VWS V14.01,2013-03-03 05:00:00,
2013-03-02 23:05:00,23.9,12.1,30.19,South,180,0.0,0.0,60,0.00,,---,0.00,0.00,VWS V14.01,2013-03-03 05:05:00,
2013-03-02 23:10:00,23.9,12.4,30.19,South,180,0.0,0.0,61,0.00,,---,0.00,0.00,VWS V14.01,2013-03-03 05:10:00,
2013-03-02 23:15:00,23.9,12.4,30.19,South,180,0.0,0.0,61,0.00,,---,0.00,0.00,VWS V14.01,2013-03-03 05:15:00,
2013-03-02 23:20:00,23.9,12.8,30.19,South,180,0.0,0.0,62,0.00,,---,0.00,0.00,VWS V14.01,2013-03-03 05:20:00,
2013-03-02 23:25:00,23.9,12.4,30.19,South,180,1.0,1.0,61,0.00,,---,0.00,0.00,VWS V14.01,2013-03-03 05:25:00,
2013-03-02 23:30:00,24.0,12.5,30.19,South,180,2.0,3.0,61,0.00,,---,0.00,0.00,VWS V14.01,2013-03-03 05:30:00,
2013-03-02 23:35:00,24.0,12.5,30.19,South,180,1.0,2.0,61,0.00,,---,0.00,0.00,VWS V14.01,2013-03-03 05:35:00,
2013-03-02 23:40:00,24.0,12.5,30.18,South,180,0.0,1.0,61,0.00,,---,0.00,0.00,VWS V14.01,2013-03-03 05:40:00,
2013-03-02 23:45:00,23.9,12.4,30.18,South,180,0.0,1.0,61,0.00,,---,0.00,0.00,VWS V14.01,2013-03-03 05:45:00,
2013-03-02 23:50:00,23.8,12.3,30.18,South,180,0.0,0.0,61,0.00,,---,0.00,0.00,VWS V14.01,2013-03-03 05:50:00,
2013-03-02 23:55:00,23.7,12.2,30.17,South,180,0.0,0.0,61,0.00,,---,0.00,0.00,VWS V14.01,2013-03-03 05:55:00,